OCEANSAT-2

Last updated on Thu Jul 03 2025 00:02:29 GMT+0000 (Coordinated Universal Time)

1 35931U 09051A 25183.62510562 .00000284 00000+0 22003-3 0 9995 2 35931 98.2236 200.7106 0017055 137.0518 223.1984 13.99598720830432
UTC large
Height (km)
Speed (km/s)
/
Latitude / Longitude
Inclination (degrees)
Orbital Period (minutes)
Azimuth
Elevation
Range (km)
Doppler Factor

Next 0 passes for location: London (51.5072 / 0.1276)

Sorry there are no passes over London.